Starlink 31515

operational
NORAD ID: 59476 Int'l Des: 2024-068 Owner: SPXS Country: US Constellation: starlink
LEOCIRCULAR

关于 Starlink 31515

正在加载描述...

实时位置

正在加载3D地球...

即将过境

高度历史

Altitude vs Time

uPlot chart will show altitude changes over time

两行轨道根数

1 59476U 24068X 25350.71840587 .00006743 00000-0 25426-3 0 9998
2 59476 42.9985 143.0640 0001326 270.3007 89.7693 15.27590611 95833
Epoch: Dec 16, 2025 • Age: 22 hours

当前状态

高度 494.9 km
速度 7.62 km/s
星下点 -41.96°S, 114.86°E
发射日期 Apr 10, 2024
运行时间 1.6 years
类型 internet

技术详情

分类 Payload
质量 730.00 kg
干质量 700.00 kg
总质量 730.00 kg
长度 0.30 m
直径 4.10 m
跨度 29.00 m
形状 Box + pan
制造商 SPXS
平台类型 Starlink V2M
阶段状态 In Orbit
所有者/国家 SPXS/US

大型星座

Loading constellations...